User: anonymous   Login
Location: Unspecified
(0.0000°N, 0.0000°E)
Time: 16:45:16
(UTC+01:00)
Language:

NOAA 12 - Orbit

View from above orbital plane
View from above orbital plane
View from above satellite
View from above satellite

Ground track
Ground track

The orbit data is extracted from the following two-line orbital elements,

1 21263U 91032A   14352.60034382  .00000158  00000-0  84985-4 0  5437
2 21263 098.6471 017.1612 0014561 064.0127 095.4573 14.25714266226838
Epoch (UTC): 18 December 2014 14:24:29
Eccentricity: 0.0014561
inclination: 98.6471°
perigee height: 795 km
apogee height: 816 km
right ascension of ascending node: 17.1612°
argument of perigee: 64.0127°
revolutions per day: 14.25714266
mean anomaly at epoch: 95.4573°
orbit number at epoch: 22683

The dashed part of the orbit path shows where the satellite is in the earth's shadow,  

DLR